ARIANE 2 DEB, 27034

Orbit data source: Space-Track

ARIANE 2 DEB, 27034 is space debris in HEO originally from a launch on Fri, 27 Jan 1989 UTC launched from the French Guiana (FRGUI). Debris objects in space refer to the collection of defunct objects orbiting the Earth. Examples of debris include non-operational satellites, rocket bodies, and fragments generated from explosions, collisions, or faulty payload assembly.

Loading next visibility...
Identifier
27034, 1989-006P
Orbit
HEO
Country
Flag of FRFR
Related business
Manufacturer
EADS/LV
Mission
Spacecraft
Bus & Motor
Unknown
Mass
Unknown
Launch date (UTC)
1989-01-27 (37 years ago)
Launch vehicle
Unknown
Launch site
French Guiana (FRGUI)
Object type
Payload
Rocket body
Debris
Shape & HBR
Unknown shape, 0.5 m
Radar Cross Section
Medium (>0.1 m² and <1 m²)

Expand to show TLE details & history
Last TLE update: 1 day ago

TLE from 1 day ago
0 ARIANE 2 DEB
1 27034U 89006P   26104.00486197 -.00000081  00000-0 -25460-2 0  9997
2 27034   8.3853 321.8428 7110478 320.3493 302.2299  2.24865362203151
Epoch: 2026-04-14T00:07Z
TLE epoch observation values (Epoch: 2026-04-14T00:07:00.074Z)
Latitude
0.03293°
Longitude
-62.35745°
Altitude
20,664.541 km
Speed
3.644 km/s
True Right ascension
09h 26m 19s
True Declination
0° 01' 58"
Sunlit
Object was in daylight at epoch
Visualization orbit readout
Latitude
Unknown
Longitude
Unknown
Altitude
Unknown
Speed
Unknown
Apparent Right ascension
Unknown
Apparent Declination
Unknown
Sunlit
N/A
Visualization observer readout
Local Sidereal Time
12:18:42
Azimuth
Unknown
Elevation
Unknown
Doppler factor
Unknown
Orbital elements
Apogee altitude
35,740.129 km
Perigee altitude
734.561 km
Semi-major axis
24,615.482 km
Eccentricity
0.71105
Inclination
8.3853°
RAAN
321.8428°
Arg. of periapsis
320.3493°
True anomaly
219.25016°
Mean anomaly
302.2299°
Eccentric anomaly
261.89664°
Mean motion
0.56199 °/min
Orbital period
640.58 mins
BSTAR
-0.002546
Loading maneuver chart data...
Computing Atmospheric mass density...
Loading historical data...
Loading historical data...
Loading historical data...
Loading historical data...
Loading historical data...
Loading historical data...
Loading historical data...

Documentation

Showing up to 5 results
|